Regional Weather Roundup
Issued by NWS Lake Charles, LA

Home | Current Version | Previous Version | Text Only | Print | Product List | Glossary On
Versions: 1 2 3 4 5 6 7 8 9 10 11 12 13 14 15 16 17 18 19 20 21 22 23 24 25 26 27 28 29 30 31 32 33 34 35 36 37 38 39 40 41 42 43 44 45 46 47 48 49 50
000
ASUS44 KLCH 200410
RWRLCH
RWRLCH
REGIONAL WEATHER ROUNDUP
NATIONAL WEATHER SERVICE LAKE CHARLES LA
1100 PM CDT SUN OCT 19 2014

Note: "fair" indicates few or no clouds below 12,000 feet with no
significant weather and/or obstructions to visibility.


ACROSS SOUTHEAST TEXAS

CITY           SKY/WX    TMP DP  RH WIND       PRES   REMARKS
BEAUMONT       NOT AVBL
BEAUMONT CITY  NOT AVBL
ORANGE         NOT AVBL
JASPER         NOT AVBL
$$

ACROSS CENTRAL LOUISIANA

CITY           SKY/WX    TMP DP  RH WIND       PRES   REMARKS
LEESVILLE      NOT AVBL
FULLERTON        N/A     57  53  86 CALM      30.07S
ALEXANDRIA INT NOT AVBL
ESLER FIELD    NOT AVBL
DERIDDER       NOT AVBL
OAKDALE        NOT AVBL
OPELOUSAS      NOT AVBL
$$

ACROSS SOUTHWEST AND SOUTH CENTRAL LOUISIANA

CITY           SKY/WX    TMP DP  RH WIND       PRES   REMARKS
SULPHUR        NOT AVBL
LAKE CHARLES   NOT AVBL
CHENNAULT INT  NOT AVBL
CAMERON PHI    NOT AVBL
DEQUINCY       NOT AVBL
JENNINGS       NOT AVBL
LAFAYETTE      NOT AVBL
NEW IBERIA     NOT AVBL
ABBEVILLE      NOT AVBL
PATTERSON      NOT AVBL
SALT POINT       N/A     68  62  81 CALM      30.06R
$$

SELECTED SITES ACROSS THE REGION

CITY           SKY/WX    TMP DP  RH WIND       PRES   REMARKS
HOUSTON BUSH   NOT AVBL
HOUSTON HOBBY  NOT AVBL
GALVESTON      NOT AVBL
COLLEGE STAT   NOT AVBL
CONROE         NOT AVBL
HUNTSVILLE     NOT AVBL
LUFKIN         NOT AVBL
SHREVEPORT     NOT AVBL
MONROE         NOT AVBL
NATCHEZ MS     NOT AVBL
BATON ROUGE    NOT AVBL
N.O. INTL ARPT NOT AVBL
SLIDELL        NOT AVBL
$$

MARINE REPORTS

STATION/POSITION TIME  TEMP    WIND        PRES    VSBY  WAVE
                       AIR SEA DIR/SP/G                  HT/PER
                 (UTC) (F)     (DEG/KT/KT) (MB)    (MI)  (FT/S)
BUOY 30 S HIGH I 0300   76 80   70/ 14/ 17 1016.4R         3/ 5
SEA RIM ST PARK  0300   68      50/  6/  6 1017.9S
PORT ARTHUR      0300      77   50/  1/  5 1017.5F
SABINE PASS N    0300   69 76   60/  5/  7 1017.5R
TEXAS POINT      0300   70 76   50/ 10/ 12 1017.5S
CALCASIEU PASS   0300   68 76   60/  8/ 10   N/A
LK CHARLES BEACH 0300   68 77              1018.0S
MARSH ISLAND     NOT AVBL
FRESH WATER LOCK 0300   69 76   20/  5/  6 1017.7R
AMERADA PASS     0300   67 74   80/  3/  5 1017.9R
$$



USA.gov is the U.S. government's official web portal to all federal, state and local government web resources and services.